Time,TemperatureF,DewpointF,PressureIn,WindDirection,WindDirectionDegrees,WindSpeedMPH,WindSpeedGustMPH,Humidity,HourlyPrecipIn,Conditions,Clouds,dailyrainin,SolarRadiationWatts/m^2,SoftwareType,DateUTC
2013-02-20 00:11:00,-12.0,-21.0,-100.00,East,97,4.0,9.0,64,0.00,,,0.00,0.000000,,2013-02-20 06:11:00,
2013-02-20 00:21:00,-12.0,-21.0,-100.00,East,97,4.0,9.0,64,0.00,,,0.00,0.000000,,2013-02-20 06:21:00,
2013-02-20 00:32:00,-12.0,-21.0,-100.00,East,97,4.0,9.0,64,0.00,,,0.00,0.000000,,2013-02-20 06:32:00,
2013-02-20 00:42:00,-12.0,-21.0,-100.00,East,97,4.0,9.0,64,0.00,,,0.00,0.000000,,2013-02-20 06:42:00,
2013-02-20 00:51:00,-11.0,-19.0,-100.00,ESE,104,6.0,11.0,65,0.00,,,0.00,0.000000,,2013-02-20 06:51:00,
2013-02-20 01:11:00,-11.0,-19.0,-100.00,ESE,104,6.0,11.0,65,0.00,,,0.00,0.000000,,2013-02-20 07:11:00,
2013-02-20 01:21:00,-11.0,-19.0,-100.00,ESE,104,6.0,11.0,65,0.00,,,0.00,0.000000,,2013-02-20 07:21:00,
2013-02-20 01:31:00,-11.0,-19.0,-100.00,ESE,104,6.0,11.0,65,0.00,,,0.00,0.000000,,2013-02-20 07:31:00,
2013-02-20 01:41:00,-11.0,-19.0,-100.00,ESE,104,6.0,11.0,65,0.00,,,0.00,0.000000,,2013-02-20 07:41:00,
2013-02-20 01:51:00,-11.0,-20.0,-100.00,ESE,105,5.0,14.0,63,0.00,,,0.00,0.000000,,2013-02-20 07:51:00,
2013-02-20 02:11:00,-11.0,-20.0,-100.00,ESE,105,5.0,14.0,63,0.00,,,0.00,0.000000,,2013-02-20 08:11:00,
2013-02-20 02:21:00,-11.0,-20.0,-100.00,ESE,105,5.0,14.0,63,0.00,,,0.00,0.000000,,2013-02-20 08:21:00,
2013-02-20 02:31:00,-11.0,-20.0,-100.00,ESE,105,5.0,14.0,63,0.00,,,0.00,0.000000,,2013-02-20 08:31:00,
2013-02-20 02:41:00,-11.0,-20.0,-100.00,ESE,105,5.0,14.0,63,0.00,,,0.00,0.000000,,2013-02-20 08:41:00,
2013-02-20 02:51:00,-11.0,-20.0,-100.00,East,88,8.0,14.0,64,0.00,,,0.00,0.000000,,2013-02-20 08:51:00,
2013-02-20 03:11:00,-11.0,-20.0,-100.00,East,88,8.0,14.0,64,0.00,,,0.00,0.000000,,2013-02-20 09:11:00,
2013-02-20 03:21:00,-11.0,-20.0,-100.00,East,88,8.0,14.0,64,0.00,,,0.00,0.000000,,2013-02-20 09:21:00,
2013-02-20 03:31:00,-11.0,-20.0,-100.00,East,88,8.0,14.0,64,0.00,,,0.00,0.000000,,2013-02-20 09:31:00,
2013-02-20 03:42:00,-11.0,-20.0,-100.00,East,88,8.0,14.0,64,0.00,,,0.00,0.000000,,2013-02-20 09:42:00,
2013-02-20 03:51:00,-10.0,-18.0,-100.00,ESE,107,8.0,14.0,65,0.00,,,0.00,0.000000,,2013-02-20 09:51:00,
2013-02-20 04:12:00,-10.0,-18.0,-100.00,ESE,107,8.0,14.0,65,0.00,,,0.00,0.000000,,2013-02-20 10:12:00,
2013-02-20 04:22:00,-10.0,-18.0,-100.00,ESE,107,8.0,14.0,65,0.00,,,0.00,0.000000,,2013-02-20 10:22:00,
2013-02-20 04:32:00,-10.0,-18.0,-100.00,ESE,107,8.0,14.0,65,0.00,,,0.00,0.000000,,2013-02-20 10:32:00,
2013-02-20 04:42:00,-10.0,-18.0,-100.00,ESE,107,8.0,14.0,65,0.00,,,0.00,0.000000,,2013-02-20 10:42:00,
2013-02-20 04:51:00,-10.0,-18.0,-100.00,SE,132,5.0,12.0,65,0.00,,,0.00,0.000000,,2013-02-20 10:51:00,
2013-02-20 05:21:00,-10.0,-18.0,-100.00,SE,132,5.0,12.0,65,0.00,,,0.00,0.000000,,2013-02-20 11:21:00,
2013-02-20 05:32:00,-10.0,-18.0,-100.00,SE,132,5.0,12.0,65,0.00,,,0.00,0.000000,,2013-02-20 11:32:00,
2013-02-20 05:42:00,-10.0,-18.0,-100.00,SE,132,5.0,12.0,65,0.00,,,0.00,0.000000,,2013-02-20 11:42:00,
2013-02-20 05:51:00,-10.0,-18.0,-100.00,ESE,123,9.0,14.0,66,0.00,,,0.00,0.000000,,2013-02-20 11:51:00,
2013-02-20 06:12:00,-10.0,-18.0,-100.00,ESE,123,9.0,14.0,66,0.00,,,0.00,0.000000,,2013-02-20 12:12:00,
2013-02-20 06:21:00,-10.0,-18.0,-100.00,ESE,123,9.0,14.0,66,0.00,,,0.00,0.000000,,2013-02-20 12:21:00,
2013-02-20 06:32:00,-10.0,-18.0,-100.00,ESE,123,9.0,14.0,66,0.00,,,0.00,0.000000,,2013-02-20 12:32:00,
2013-02-20 06:42:00,-10.0,-18.0,-100.00,ESE,123,9.0,14.0,66,0.00,,,0.00,0.000000,,2013-02-20 12:42:00,
2013-02-20 06:51:00,-10.0,-18.0,-100.00,SE,132,9.0,17.0,65,0.00,,,0.00,0.000000,,2013-02-20 12:51:00,
2013-02-20 07:11:00,-10.0,-18.0,-100.00,SE,132,9.0,17.0,65,0.00,,,0.00,0.000000,,2013-02-20 13:11:00,
2013-02-20 07:22:00,-10.0,-18.0,-100.00,SE,132,9.0,17.0,65,0.00,,,0.00,0.000000,,2013-02-20 13:22:00,
2013-02-20 07:32:00,-10.0,-18.0,-100.00,SE,132,9.0,17.0,65,0.00,,,0.00,0.000000,,2013-02-20 13:32:00,
2013-02-20 07:42:00,-10.0,-18.0,-100.00,SE,132,9.0,17.0,65,0.00,,,0.00,0.000000,,2013-02-20 13:42:00,
2013-02-20 07:51:00,-12.0,-20.0,-100.00,SE,130,8.0,14.0,66,0.00,,,0.00,4.000000,,2013-02-20 13:51:00,
2013-02-20 08:21:00,-12.0,-20.0,-100.00,SE,130,8.0,14.0,66,0.00,,,0.00,4.000000,,2013-02-20 14:21:00,
2013-02-20 08:32:00,-12.0,-20.0,-100.00,SE,130,8.0,14.0,66,0.00,,,0.00,4.000000,,2013-02-20 14:32:00,
2013-02-20 08:42:00,-12.0,-20.0,-100.00,SE,130,8.0,14.0,66,0.00,,,0.00,4.000000,,2013-02-20 14:42:00,
2013-02-20 08:51:00,-8.0,-17.0,-100.00,SE,142,9.0,15.0,65,0.00,,,0.00,106.000000,,2013-02-20 14:51:00,
2013-02-20 09:11:00,-8.0,-17.0,-100.00,SE,142,9.0,15.0,65,0.00,,,0.00,106.000000,,2013-02-20 15:11:00,
2013-02-20 09:42:00,-8.0,-17.0,-100.00,SE,142,9.0,15.0,65,0.00,,,0.00,106.000000,,2013-02-20 15:42:00,
2013-02-20 09:51:00,-4.0,-15.0,-100.00,ESE,122,9.0,16.0,59,0.00,,,0.00,300.000000,,2013-02-20 15:51:00,
2013-02-20 10:42:00,-4.0,-15.0,-100.00,ESE,122,9.0,16.0,59,0.00,,,0.00,300.000000,,2013-02-20 16:42:00,
2013-02-20 10:51:00,-1.0,-13.0,-100.00,SE,132,9.0,17.0,57,0.00,,,0.00,407.000000,,2013-02-20 16:51:00,
2013-02-20 11:42:00,-1.0,-13.0,-100.00,SE,132,9.0,17.0,57,0.00,,,0.00,407.000000,,2013-02-20 17:42:00,
2013-02-20 11:51:00,0.0,-11.0,-100.00,SSE,153,10.0,16.0,58,0.00,,,0.00,497.000000,,2013-02-20 17:51:00,
2013-02-20 12:21:00,0.0,-11.0,-100.00,SSE,153,10.0,16.0,58,0.00,,,0.00,497.000000,,2013-02-20 18:21:00,
2013-02-20 12:32:00,0.0,-11.0,-100.00,SSE,153,10.0,16.0,58,0.00,,,0.00,497.000000,,2013-02-20 18:32:00,
2013-02-20 12:42:00,0.0,-11.0,-100.00,SSE,153,10.0,16.0,58,0.00,,,0.00,497.000000,,2013-02-20 18:42:00,
2013-02-20 12:51:00,3.0,-8.0,-100.00,SSE,156,11.0,18.0,60,0.00,,,0.00,543.000000,,2013-02-20 18:51:00,
2013-02-20 13:21:00,3.0,-8.0,-100.00,SSE,156,11.0,18.0,60,0.00,,,0.00,543.000000,,2013-02-20 19:21:00,
2013-02-20 13:31:00,3.0,-8.0,-100.00,SSE,156,11.0,18.0,60,0.00,,,0.00,543.000000,,2013-02-20 19:31:00,
2013-02-20 13:41:00,3.0,-8.0,-100.00,SSE,156,11.0,18.0,60,0.00,,,0.00,543.000000,,2013-02-20 19:41:00,
2013-02-20 13:51:00,5.0,-5.0,-100.00,SE,145,10.0,19.0,61,0.00,,,0.00,530.000000,,2013-02-20 19:51:00,
2013-02-20 14:21:00,5.0,-5.0,-100.00,SE,145,10.0,19.0,61,0.00,,,0.00,530.000000,,2013-02-20 20:21:00,
2013-02-20 14:31:00,5.0,-5.0,-100.00,SE,145,10.0,19.0,61,0.00,,,0.00,530.000000,,2013-02-20 20:31:00,
2013-02-20 14:41:00,5.0,-5.0,-100.00,SE,145,10.0,19.0,61,0.00,,,0.00,530.000000,,2013-02-20 20:41:00,
2013-02-20 14:51:00,5.0,-5.0,-100.00,SE,126,9.0,17.0,61,0.00,,,0.00,388.000000,,2013-02-20 20:51:00,
2013-02-20 15:11:00,5.0,-5.0,-100.00,SE,126,9.0,17.0,61,0.00,,,0.00,388.000000,,2013-02-20 21:11:00,
2013-02-20 15:21:00,5.0,-5.0,-100.00,SE,126,9.0,17.0,61,0.00,,,0.00,388.000000,,2013-02-20 21:21:00,
2013-02-20 15:31:00,5.0,-5.0,-100.00,SE,126,9.0,17.0,61,0.00,,,0.00,388.000000,,2013-02-20 21:31:00,
2013-02-20 15:42:00,5.0,-5.0,-100.00,SE,126,9.0,17.0,61,0.00,,,0.00,388.000000,,2013-02-20 21:42:00,
2013-02-20 15:51:00,4.0,-6.0,-100.00,SE,127,9.0,18.0,63,0.00,,,0.00,263.000000,,2013-02-20 21:51:00,
2013-02-20 16:11:00,4.0,-6.0,-100.00,SE,127,9.0,18.0,63,0.00,,,0.00,263.000000,,2013-02-20 22:11:00,
2013-02-20 16:21:00,4.0,-6.0,-100.00,SE,127,9.0,18.0,63,0.00,,,0.00,263.000000,,2013-02-20 22:21:00,
2013-02-20 16:31:00,4.0,-6.0,-100.00,SE,127,9.0,18.0,63,0.00,,,0.00,263.000000,,2013-02-20 22:31:00,
2013-02-20 16:42:00,4.0,-6.0,-100.00,SE,127,9.0,18.0,63,0.00,,,0.00,263.000000,,2013-02-20 22:42:00,
2013-02-20 16:51:00,4.0,-5.0,-100.00,SE,126,10.0,19.0,66,0.00,,,-99.99,121.000000,,2013-02-20 22:51:00,
2013-02-20 17:12:00,4.0,-5.0,-100.00,SE,126,10.0,19.0,66,0.00,,,-99.99,121.000000,,2013-02-20 23:12:00,
2013-02-20 17:22:00,4.0,-5.0,-100.00,SE,126,10.0,19.0,66,0.00,,,-99.99,121.000000,,2013-02-20 23:22:00,
2013-02-20 17:32:00,4.0,-5.0,-100.00,SE,126,10.0,19.0,66,0.00,,,-99.99,121.000000,,2013-02-20 23:32:00,
2013-02-20 17:42:00,4.0,-5.0,-100.00,SE,126,10.0,19.0,66,0.00,,,-99.99,121.000000,,2013-02-20 23:42:00,
2013-02-20 17:51:00,4.0,-4.0,-100.00,SE,126,12.0,19.0,69,0.00,,,0.00,56.000000,,2013-02-20 23:51:00,
2013-02-20 18:21:00,4.0,-4.0,-100.00,SE,126,12.0,19.0,69,0.00,,,0.00,56.000000,,2013-02-21 00:21:00,
2013-02-20 18:32:00,4.0,-4.0,-100.00,SE,126,12.0,19.0,69,0.00,,,0.00,56.000000,,2013-02-21 00:32:00,
2013-02-20 18:42:00,4.0,-4.0,-100.00,SE,126,12.0,19.0,69,0.00,,,0.00,56.000000,,2013-02-21 00:42:00,
2013-02-20 18:51:00,2.0,-5.0,-100.00,SE,126,11.0,19.0,73,0.00,,,0.00,4.000000,,2013-02-21 00:51:00,
2013-02-20 19:21:00,2.0,-5.0,-100.00,SE,126,11.0,19.0,73,0.00,,,0.00,4.000000,,2013-02-21 01:21:00,
2013-02-20 19:32:00,2.0,-5.0,-100.00,SE,126,11.0,19.0,73,0.00,,,0.00,4.000000,,2013-02-21 01:32:00,
2013-02-20 19:42:00,2.0,-5.0,-100.00,SE,126,11.0,19.0,73,0.00,,,0.00,4.000000,,2013-02-21 01:42:00,
2013-02-20 19:51:00,2.0,-5.0,-100.00,SE,135,15.0,24.0,71,0.00,,,0.00,0.000000,,2013-02-21 01:51:00,
2013-02-20 20:11:00,2.0,-5.0,-100.00,SE,135,15.0,24.0,71,0.00,,,0.00,0.000000,,2013-02-21 02:11:00,
2013-02-20 20:21:00,2.0,-5.0,-100.00,SE,135,15.0,24.0,71,0.00,,,0.00,0.000000,,2013-02-21 02:21:00,
2013-02-20 20:32:00,2.0,-5.0,-100.00,SE,135,15.0,24.0,71,0.00,,,0.00,0.000000,,2013-02-21 02:32:00,
2013-02-20 20:42:00,2.0,-5.0,-100.00,SE,135,15.0,24.0,71,0.00,,,0.00,0.000000,,2013-02-21 02:42:00,
2013-02-20 20:51:00,3.0,-4.0,-100.00,SE,144,17.0,25.0,71,0.00,,,0.00,0.000000,,2013-02-21 02:51:00,
2013-02-20 21:12:00,3.0,-4.0,-100.00,SE,144,17.0,25.0,71,0.00,,,0.00,0.000000,,2013-02-21 03:12:00,
2013-02-20 21:21:00,3.0,-4.0,-100.00,SE,144,17.0,25.0,71,0.00,,,0.00,0.000000,,2013-02-21 03:21:00,
2013-02-20 21:32:00,3.0,-4.0,-100.00,SE,144,17.0,25.0,71,0.00,,,0.00,0.000000,,2013-02-21 03:32:00,
2013-02-20 21:42:00,3.0,-4.0,-100.00,SE,144,17.0,25.0,71,0.00,,,0.00,0.000000,,2013-02-21 03:42:00,
2013-02-20 21:51:00,4.0,-4.0,-100.00,SE,145,15.0,26.0,69,0.00,,,0.00,0.000000,,2013-02-21 03:51:00,
2013-02-20 22:22:00,4.0,-4.0,-100.00,SE,145,15.0,26.0,69,0.00,,,0.00,0.000000,,2013-02-21 04:22:00,
2013-02-20 22:32:00,4.0,-4.0,-100.00,SE,145,15.0,26.0,69,0.00,,,0.00,0.000000,,2013-02-21 04:32:00,
2013-02-20 22:42:00,4.0,-4.0,-100.00,SE,145,15.0,26.0,69,0.00,,,0.00,0.000000,,2013-02-21 04:42:00,
2013-02-20 22:51:00,5.0,-3.0,-100.00,SSE,150,17.0,25.0,69,0.00,,,-99.99,0.000000,,2013-02-21 04:51:00,
2013-02-20 23:22:00,5.0,-3.0,-100.00,SSE,150,17.0,25.0,69,0.00,,,-99.99,0.000000,,2013-02-21 05:22:00,
2013-02-20 23:34:00,5.0,-3.0,-100.00,SSE,150,17.0,25.0,69,0.00,,,-99.99,0.000000,,2013-02-21 05:34:00,
2013-02-20 23:44:00,5.0,-3.0,-100.00,SSE,150,17.0,25.0,69,0.00,,,-99.99,0.000000,,2013-02-21 05:44:00,
2013-02-20 23:51:00,6.0,-2.0,-100.00,SSE,148,17.0,26.0,69,0.00,,,0.00,0.000000,,2013-02-21 05:51:00,